Weather in Talpaki

Russia / Kaliningrad Oblast     54°39′03″N   21°20′13″E
temp.,
°C
wind,
m/s
gust,
m/s
humid.,
%
clouds,
%
prec.,
mm/h
press.,
hPa
HPBL,
m
13 april, tue
tue1323:00+3nw5992100 0.3 1022666
02:00+4wnw3983100 0.3 1022562
05:00+4nw41081100 0.0 1022520
08:00+5nw4877100 0.0 1024507
11:00+6nw5655100 0.0 1024950
14:00+7nnw5648100 0.0 10251151
17:00+6nnw4655100 0.0 1024807
20:00+3nw2681100 0.0 1024304
14 april, wed
wed1423:00+2nw2590100 0.0 1023233
02:00+2wnw2593100 0.0 1022152
05:00+2wnw2392100 0.0 1022116
08:00+4nnw2479100 0.0 1022456
11:00+6n3460100 0.0 1022910
14:00+8nnw4652100 0.0 10221304
17:00+6nnw5971100 0.0 1021503
20:00+5n4977100 0.0 1022480
15 april, thu
thu1523:00+5n41079100 0.1 1022609
02:00+4nne51180100 0.1 1022706
05:00+2n51392100 0.3 1021771
08:00+3nne51389100 1.0 1021802
11:00+4nne51185100 0.1 1021776
14:00+7ne31077100 0.1 1021850
17:00+8ne51067100 0.0 10211004
20:00+5nne4988100 0.3 1022836
16 april, fri
fri1623:00+5ne41092100 0.4 1021933
02:00+4nne41194100 1.4 1020745
05:00+4nne41087100 0.1 1020532
08:00+5nne41192100 0.8 1020584
11:00+5ne41393100 1.0 1020607
14:00+9ne598299 1.0 1021739
17:00+11ene51077100 0.0 10211113
20:00+9ne41284100 0.1 1022605
17 april, sat
sat1723:00+9ne41184100 0.0 1023486
02:00+8ne41183100 0.0 1023449
05:00+7ne41082100 0.0 1024433
08:00+8ene41081100 0.0 1025435
11:00+10ene4774100 0.0 1026564
14:00+13ene576772 0.0 1026881
17:00+12ene4878100 0.0 1026605
20:00+11ene41078100 0.0 1027461